Weather History for Wolf Point, MT

Change the Weather History Date:

Tuesday, June 25, 2013

  Actual Average Record
Temperature  
Mean Temperature 67 °F -  
Max Temperature 78 °F 81 °F 93 °F (2012)
Min Temperature 55 °F 51 °F 35 °F (2004)
Degree Days  
Heating Degree Days 0    
Cooling Degree Days 2    
Growing Degree Days 18 (Base 50)    
Moisture  
Dew Point 58 °F    
Average Humidity 71    
Maximum Humidity 93    
Minimum Humidity 46    
Precipitation  
Precipitation 0.03 in 0.07 in 0.70 in (2007)
Month to date precipitation 3.16 2.42  
Year to date precipitation 8.72 6.12  
Sea Level Pressure  
Sea Level Pressure 29.66 in    
Wind  
Wind Speed 10 mph (WNW)    
Max Wind Speed 26 mph    
Max Gust Speed 53 mph    
Visibility 10 miles    
Events Rain , Thunderstorm    
T = Trace of Precipitation, MM = Missing Value Source: NWS Daily Summary

Daily Weather History Graph

Daily Weather History Graph

Search for Another Location

Airport:

Trip Planner

Search our weather history database for the weather conditions in past years. The results will help you decide how hot, cold, wet, or windy it might be!

Date:

Astronomy

Jun. 25, 2013 Rise Set
Actual Time 5:03 AM MDT 9:06 PM MDT
Civil Twilight 4:22 AM MDT 9:47 PM MDT
Nautical Twilight 3:24 AM MDT 10:45 PM MDT
Astronomical Twilight 1:43 AM MDT 12:25 AM MDT
Moon 10:36 PM MDT (6/25) 8:00 AM MDT (6/25)
Length of Visible Light 17h 25m
Length of Day
16h 02m
Waning Gibbous, 92% of the Moon is Illuminated
Jun 25
Waning Gibbous
Jun 29
Last Quarter
Jul 8
New
Jul 15
First Quarter
Jul 22
Full

Hourly Weather History & Observations

Time (MDT) Temp. Dew Point Humidity Pressure Visibility Wind Dir Wind Speed Gust Speed Precip Events Conditions
12:53 AM 69.1 °F 66.0 °F 90% 29.54 in 10.0 mi East 6.9 mph - N/A   Clear
1:50 AM 69.8 °F 57.2 °F 64% 29.63 in 10.0 mi NNW 18.4 mph 31.1 mph N/A   Overcast
1:53 AM 69.1 °F 57.0 °F 65% 29.59 in 10.0 mi NW 11.5 mph 31.1 mph N/A   Overcast
2:53 AM 66.0 °F 55.9 °F 70% 29.55 in 10.0 mi NNE 17.3 mph 26.5 mph N/A   Clear
3:15 AM 66.2 °F 55.4 °F 68% 29.71 in 10.0 mi West 26.5 mph 52.9 mph N/A Thunderstorm Mostly Cloudy
3:50 AM 59.0 °F 55.4 °F 88% 29.69 in 10.0 mi NNW 9.2 mph 21.9 mph 0.03 in Rain , Thunderstorm Light Rain
3:53 AM 57.9 °F 55.0 °F 90% 29.65 in 10.0 mi NNW 10.4 mph - 0.03 in Rain , Thunderstorm Light Rain
4:11 AM 60.8 °F 57.2 °F 88% 29.67 in 10.0 mi WSW 3.5 mph - 0.00 in   Mostly Cloudy
4:53 AM 61.0 °F 57.0 °F 87% 29.62 in 10.0 mi ENE 9.2 mph - 0.00 in   Clear
5:53 AM 61.0 °F 55.9 °F 83% 29.58 in 10.0 mi Variable 3.5 mph - N/A   Clear
6:53 AM 63.0 °F 57.0 °F 81% 29.58 in 10.0 mi ENE 3.5 mph - N/A   Clear
7:53 AM 66.0 °F 60.1 °F 81% 29.61 in 10.0 mi WSW 6.9 mph - N/A   Clear
8:53 AM 69.1 °F 59.0 °F 70% 29.67 in 10.0 mi West 13.8 mph - N/A   Clear
9:53 AM 68.0 °F 57.9 °F 70% 29.69 in 10.0 mi West 10.4 mph - N/A   Overcast
10:53 AM 71.1 °F 60.1 °F 68% 29.68 in 10.0 mi WSW 8.1 mph - N/A   Mostly Cloudy
11:53 AM 73.0 °F 60.1 °F 64% 29.69 in 10.0 mi West 10.4 mph - N/A   Partly Cloudy
12:53 PM 73.0 °F 62.1 °F 68% 29.69 in 10.0 mi West 12.7 mph 19.6 mph N/A   Partly Cloudy
1:53 PM 73.0 °F 59.0 °F 61% 29.69 in 10.0 mi West 13.8 mph - N/A   Scattered Clouds
2:53 PM 77.0 °F 61.0 °F 58% 29.70 in 10.0 mi West 11.5 mph - N/A   Clear
3:53 PM 78.1 °F 60.1 °F 54% 29.70 in 10.0 mi West 10.4 mph 20.7 mph N/A   Clear
4:53 PM 78.1 °F 57.9 °F 50% 29.70 in 10.0 mi WSW 15.0 mph 18.4 mph N/A   Clear
5:53 PM 77.0 °F 57.9 °F 52% 29.69 in 10.0 mi West 12.7 mph - N/A   Clear
6:53 PM 78.1 °F 55.9 °F 46% 29.69 in 10.0 mi West 10.4 mph - N/A   Clear
7:53 PM 75.0 °F 57.9 °F 55% 29.69 in 10.0 mi SW 3.5 mph - N/A   Clear
8:53 PM 73.0 °F 61.0 °F 66% 29.70 in 10.0 mi Calm Calm - N/A   Clear
9:53 PM 66.0 °F 60.1 °F 81% 29.73 in 10.0 mi Calm Calm - N/A   Clear
10:53 PM 59.0 °F 57.0 °F 93% 29.74 in 10.0 mi West 3.5 mph - N/A   Clear
11:53 PM 60.1 °F 57.0 °F 90% 29.74 in 10.0 mi Calm Calm - N/A   Clear